Regional Weather Roundup
Issued by NWS

Home | Current Version | Previous Version | Text Only | Print | Product List | Glossary On
Versions: 1 2 3 4 5 6 7 8 9 10 11 12 13 14 15 16 17 18 19 20 21 22 23 24 25 26 27 28 29 30 31 32 33 34 35 36 37 38 39 40 41 42 43 44 45 46 47 48 49 50
106
ASCA44 KEWX 270720
RWRMX

LATIN AMERICA AND CARIBBEAN REGIONAL WEATHER ROUNDUP
NATIONAL WEATHER SERVICE AUSTIN/SAN ANTONIO TX
200 AM CDT TUE SEP 27 2016

NOTE: "FAIR" INDICATED FEW OR NO CLOUDS BELOW 12,000 FEET WITH NO
SIGNIFICANT WEATHER AND/OR OBSTRUCTIONS TO VISIBILITY.

BAJA CALIFORNIA

CITY           SKY/WX    TMP DP  RH WIND       PRES   REMARKS
MEXICALI       CLOUDY    82  48  30 NE12      29.89S
S.J. DEL CABO    N/A    N/A N/A N/A MISG        N/A
TIJUANA        CLOUDY    86  43  22 NE5       29.92S

NORTHWESTERN MEXICO

CITY           SKY/WX    TMP DP  RH WIND       PRES   REMARKS
HERMOSILLO     CLOUDY    77  70  78 CALM      29.89F

NORTHEASTERN MEXICO

CITY           SKY/WX    TMP DP  RH WIND       PRES   REMARKS
MONCLOVA         N/A    N/A N/A N/A MISG        N/A
MONTERREY      MOCLDY    70  68  94 NW5       30.05F
REYNOSA          N/A    N/A N/A N/A MISG        N/A
CD. VICTORIA     N/A    N/A N/A N/A MISG        N/A

WESTERN MEXICO

CITY           SKY/WX    TMP DP  RH WIND       PRES   REMARKS
AGUASCALIENTES   N/A    N/A N/A N/A MISG        N/A
COLIMA           N/A    N/A N/A N/A MISG        N/A
DEL BAJIO      PTCLDY    59  55  88 E9        30.25
GUADALAJARA    LGT RAIN  61  59  94 W10       30.18R
MAZATLAN       MOCLDY    75  73  94 CALM      29.85S
P. VALLARTA    PTCLDY    81  79  94 CALM      29.85
URUAPAN        DRIZZLE   64  63  94 CALM      30.13
ZACATECAS        N/A    N/A N/A N/A MISG        N/A

CENTRAL MEXICO

CITY           SKY/WX    TMP DP  RH WIND       PRES   REMARKS
CUERNAVACA       N/A    N/A N/A N/A MISG        N/A
MEXICO CITY    MOCLDY    61  52  72 N6        30.29F
MORELIA        MOCLDY    57  57 100 CALM      30.19
POZA RICA        N/A    N/A N/A N/A MISG        N/A
QUERETARO      MOCLDY    61  59  94 SE5         N/A
S. LUIS POTOSI MOCLDY    63  54  72 E6        30.23
TOLUCA         PTCLDY    55  52  88 CALM      30.34F

SOUTHERN MEXICO

CITY           SKY/WX    TMP DP  RH WIND       PRES   REMARKS
ACAPULCO       LGT RAIN  75  75 100 W3        29.86F
B. DE HUATULCO   N/A    N/A N/A N/A MISG        N/A
P. ESCONDIDO     N/A    N/A N/A N/A MISG        N/A
VERACRUZ         N/A    N/A N/A N/A MISG        N/A

YUCATAN PENINSULA

CITY           SKY/WX    TMP DP  RH WIND       PRES   REMARKS
CAMPECHE         N/A    N/A N/A N/A MISG        N/A
CANCUN         LGT RAIN  79  79 100 E6        29.92F
CHETUMAL         N/A    N/A N/A N/A MISG        N/A
CD. DEL CARMEN   N/A    N/A N/A N/A MISG        N/A
COZUMEL        PTCLDY    79  77  94 CALM      29.94S
MERIDA         MOCLDY    75  72  88 E5        29.92F
MINATITLAN       N/A    N/A N/A N/A MISG        N/A
TAPACHULA      MOCLDY    79  75  89 CALM      29.82F
TUX. GUTIERREZ LGT RAIN  68  68 100 CALM      29.97F

CENTRAL AMERICA

CITY           SKY/WX    TMP DP  RH WIND       PRES   REMARKS
MANAGUA        PTSUNNY   77  73  88 CALM      29.83

CARIBBEAN

CITY           SKY/WX    TMP DP  RH WIND       PRES   REMARKS
ARUBA          PTCLDY    84  77  79 E15       29.80S HX  94
CURACAO        PTCLDY    82  75  78 E8        29.86S
KINGSTON       PTCLDY    84  77  79 NW6       29.89S HX  94
SAN JUAN       PTCLDY    81  75  83 CALM      29.92F
SANTO DOMINGO  PTCLDY    75  70  83 N5        29.92S THUNDER
ST. CROIX      PTCLDY    79  79 100 NE6       29.91F
ST. THOMAS     PTCLDY    84  79  84 E9        29.90F HX  96

$$





USA.gov is the U.S. government's official web portal to all federal, state and local government web resources and services.